Retour au catalogue

LES 8

ActifMilitaireGEO
NORAD 8746·PAYLOAD·🇺🇸 United States

Lancé Mar 15, 1976 depuis Cape Canaveral Space Force Station

Loading…

TLE

FraisSource: Space-Track

Époque: Sep 14, 2026, 10:35 UTC

1 08746U 76023A   26257.44145763 -.00000105  00000-0  00000-0 0  9996
2 08746  22.5530  35.8849 0032484 161.9793 207.8633  1.00268497130581

Suivez LES 8 en temps réel avec AllMySat

Download on the App Store